STARLINK-32787, 62809

Orbit data source: Space-Track

STARLINK-32787, 62809 is a payload satellite owned by SpaceX/Seattle (US) in LEO that was launched on Fri, 24 Jan 2025 UTC via an FALCON 9 launch vehicle from the Air Force Western Test Range (AFWTR). Payloads include a variety of satellites, spacecraft, and rockets equipped with specific instruments for various scientific and technological missions. These include communications satellites like Starlink; space stations such as the ISS; scientific satellites like the Hubble; Earth observation satellites from companies like Planet Labs, Umbra, and HawkEye 360; GPS; miniature CubeSats for education and research; and military/defense satellites.

Loading next visibility...
STARLINK-32787 details
Identifier
62809, 2025-018D
Orbit
LEO
Last TLE update8 hours ago
Origin
Flag of USSpaceX/Seattle (US)
ManufacturerSpaceX/Seattle
MissionOperational spacecraft
Bus & MotorSTARLINK V2M, Unknown motor
Mass730 kg wet, ~700 kg dry
Launch date (UTC)
2025-01-24 (3 weeks ago)
Launch vehicle
FALCON 9
Launch site
Air Force Western Test Range (AFWTR)
Object type
Payload
Rocket body
Debris
Shape & HBRUnknown
Radar Cross SectionLarge (>1 m²)

Expand to show TLE details & history

TLE from 8 hours ago
0 STARLINK-32787
1 62809U 25018D   25047.16668981 -.01597367  00000-0 -25351-1 0  9991
2 62809  53.1589 312.5355 0000724  82.3784 263.0780 15.55653157  4820
Epoch: 2025-02-16T04:00Z
Definitive object data (Epoch: 2025-02-16T04:00:01.999Z)
Latitude-11.74816°
Longitude97.21009°
Altitude403.484 km
Speed7.669 km/s
True Right ascension20h 14m 29s
True Declination-11° 40' 34"
Sunlit
Object was in daylight at TLE epoch
Visualization TLE readout
Latitude-27.69447°
Longitude81.57037°
Altitude411.986 km
Speed7.663 km/s
Apparent Right ascension22h 15m 48s
Apparent Declination-48° 02' 41"
Sunlit
Object is in daylight
Visualization observer readout
Local Sidereal Time14:23:50
Azimuth122.011° SE
Elevation-45.877°
Doppler factor1
Orbital elements
Apogee altitude401.005 km
Perigee altitude400.023 km
Semi-major axis6,778.651 km
Eccentricity0.0000724
Inclination53.1589°
RAAN312.5355°
Arg. of periapsis82.3784°
True anomaly263.06976°
Mean anomaly263.078°
Eccentric anomaly263.07388°
Mean motion3.88891 °/min
BSTAR-0.025351
Orbital period92.57 mins
Loading maneuver chart data...
Loading historical data...
Loading historical data...
Loading historical data...
Loading historical data...
Loading historical data...
Loading historical data...
Loading historical data...

STARLINK-32787 Visibility forecast

Observer location: undefined°, undefined

Span
Click to sort rows by Start time (UTC) header in descending order
Start Az.
Max El. time (UTC)
Max El. Az.
Max El.
End time (UTC)
End Az.
5 mins2025-02-16 19:39:26.879Z189.985° SSW2025-02-16 19:41:26.879Z144.002° SSE26.097°2025-02-16 19:44:26.879Z71.247° E
4 mins2025-02-16 21:16:26.879Z282.111° WNW2025-02-16 21:18:26.879Z340.58° N24.673°2025-02-16 21:20:26.879Z25.411° NE
4 mins2025-02-17 03:45:26.879Z275.619° WNW2025-02-17 03:47:26.879Z208.627° SW27.167°2025-02-17 03:49:26.879Z165.977° S
|